Newburgh, NY

1:06 PM EDT on October 20, 2017 (GMT -0400)
Stewart International

Weather History for KSWF - May, 2013

Change the Weather History Date:

Monday, May 20, 2013

  Actual Average Record
Temperature  
Mean Temperature 68 °F -  
Max Temperature 80 °F 66 °F 89 °F (1986)
Min Temperature 55 °F 47 °F 30 °F (2002)
Cooling Degree Days 2    
Growing Degree Days 18 (Base 50)    
Moisture  
Dew Point 60 °F    
Average Humidity 83    
Maximum Humidity 100    
Minimum Humidity 58    
Precipitation  
Precipitation 0.00 in - - ()
Sea Level Pressure  
Sea Level Pressure 30.06 in    
Wind  
Wind Speed 2 mph (WSW)    
Max Wind Speed 12 mph    
Max Gust Speed -    
Visibility 10 miles    
Events Fog    
Averages and records for this station are not official NWS values.
T = Trace of Precipitation, MM = Missing Value Source: NWS Daily Summary

Daily Weather History Graph

Daily Weather History Graph

Search for Another Location

Airport or City:

Trip Planner

Search our weather history database for the weather conditions in past years. The results will help you decide how hot, cold, wet, or windy it might be!

Date:

Astronomy

May. 20, 2013 Rise Set
Actual Time 5:32 AM EDT 8:13 PM EDT
Civil Twilight 5:00 AM EDT 8:46 PM EDT
Nautical Twilight 4:20 AM EDT 9:26 PM EDT
Astronomical Twilight 3:34 AM EDT 10:12 PM EDT
Moon 3:15 PM EDT 2:29 AM EDT
Length of Visible Light 15h 45m
Length of Day
14h 41m
Waxing Gibbous, 75% of the Moon is Illuminated
May 20
Waxing Gibbous
May 25
Full
May 31
Last Quarter
Jun 8
New
Jun 16
First Quarter

Hourly Weather History & Observations

Time (EDT) Temp. Heat Index Dew Point Humidity Pressure Visibility Wind Dir Wind Speed Gust Speed Precip Events Conditions
12:45 AM 57.2 °F - 55.4 °F 94% 30.16 in 5.0 mi Calm Calm - N/A   Overcast
1:45 AM 57.2 °F - 55.4 °F 94% 30.15 in 5.0 mi Calm Calm - N/A   Overcast
2:45 AM 57.2 °F - 55.4 °F 94% 30.14 in 5.0 mi Calm Calm - N/A   Overcast
3:45 AM 57.2 °F - 55.4 °F 94% 30.12 in 3.0 mi Calm Calm - N/A   Overcast
4:45 AM 57.2 °F - 55.4 °F 94% 30.10 in 0.5 mi Calm Calm - N/A   Overcast
5:25 AM 55.4 °F - 55.4 °F 100% 30.10 in 18.0 mi Calm Calm - N/A Fog Fog
5:45 AM 55.4 °F - 55.4 °F 100% 30.09 in 0.1 mi Calm Calm - N/A Fog Fog
6:29 AM 57.2 °F - 57.2 °F 100% 30.10 in 1.2 mi Calm Calm - N/A   Overcast
7:45 AM 57.2 °F - 57.2 °F 100% 30.11 in 4.0 mi Calm Calm - N/A   Overcast
8:45 AM 59.0 °F - 59.0 °F 100% 30.11 in 4.0 mi Calm Calm - N/A   Overcast
9:50 AM 62.6 °F - 59.0 °F 88% 30.11 in 5.0 mi West 8.1 mph - N/A   Mostly Cloudy
10:50 AM 66.2 °F - 62.6 °F 88% 30.10 in 10.0 mi West 8.1 mph - N/A   Mostly Cloudy
1:50 PM 75.2 °F - 64.4 °F 69% 30.03 in 15.0 mi West 11.5 mph - N/A   Scattered Clouds
2:45 PM 77.0 °F - 64.4 °F 65% 30.02 in 20.0 mi SW 4.6 mph - N/A   Scattered Clouds
3:45 PM 78.8 °F - 64.4 °F 61% 30.01 in 20.0 mi West 9.2 mph - N/A   Scattered Clouds
4:45 PM 78.8 °F - 64.4 °F 61% 29.97 in 20.0 mi SW 6.9 mph - N/A   Partly Cloudy
5:45 PM 80.6 °F 82.3 °F 64.4 °F 58% 29.98 in 20.0 mi SW 9.2 mph - N/A   Partly Cloudy
6:45 PM 78.8 °F - 64.4 °F 61% 29.97 in 20.0 mi SSW 9.2 mph - N/A   Clear
7:45 PM 77.0 °F - 64.4 °F 65% 29.97 in 20.0 mi Calm Calm - N/A   Clear
8:45 PM 75.2 °F - 64.4 °F 69% 29.97 in 10.0 mi SSW 6.9 mph - N/A   Clear
9:45 PM 69.8 °F - 64.4 °F 83% 30.00 in 10.0 mi Calm Calm - N/A   Clear